THOR ABLESTAR DEB, 48816

Orbit data source: Space-Track

THOR ABLESTAR DEB, 48816 is space debris in LEO originally from a launch on Thu, 29 Jun 1961 UTC launched from the Air Force Eastern Test Range (AFETR). Debris objects in space refer to the collection of defunct objects orbiting the Earth. Examples of debris include non-operational satellites, rocket bodies, and fragments generated from explosions, collisions, or faulty payload assembly.

Loading next visibility...
Identifier
48816, 1961-015MU
Orbit
LEO
Country
Flag of USUS
Related business
Manufacturer
Unknown
Mission
Spacecraft
Bus & Motor
Unknown
Mass
Unknown
Launch date (UTC)
1961-06-29 (65 years ago)
Launch vehicle
Unknown
Launch site
Air Force Eastern Test Range (AFETR)
Object type
Payload
Rocket body
Debris
Shape & HBR
Unknown shape, 0.1 m
Radar Cross Section
Small (<0.1 m²)

Expand to show TLE details & history
Last TLE update: 5 days ago

TLE from 5 days ago
0 THOR ABLESTAR DEB
1 48816U 61015MU  26202.65419982  .00000564  00000-0  35566-3 0  9999
2 48816  66.8037 175.2770 0102000 172.4162 187.8499 14.08736143650693
Epoch: 2026-07-21T15:42Z
TLE epoch observation values (Epoch: 2026-07-21T15:42:02.864Z)
Latitude
0.00002°
Longitude
0.34428°
Altitude
938.991 km
Speed
7.345 km/s
True Right ascension
11h 41m 06s
True Declination
0° 00' 00"
Sunlit
Object was in daylight at epoch
Visualization orbit readout
Latitude
Unknown
Longitude
Unknown
Altitude
Unknown
Speed
Unknown
Apparent Right ascension
Unknown
Apparent Declination
Unknown
Sunlit
N/A
Visualization observer readout
Local Sidereal Time
19:16:05
Azimuth
Unknown
Elevation
Unknown
Doppler factor
Unknown
Orbital elements
Apogee altitude
935.929 km
Perigee altitude
788.229 km
Semi-major axis
7,240.216 km
Eccentricity
0.0102
Inclination
66.8037°
RAAN
175.277°
Arg. of periapsis
172.4162°
True anomaly
187.69225°
Mean anomaly
187.8499°
Eccentric anomaly
187.77088°
Mean motion
3.52303 °/min
Orbital period
102.18 mins
BSTAR
0.00035566

Documentation

Showing up to 5 results
|